Monterey, CA

3:13 AM PST on November 21, 2017 (GMT -0800)
Monterey Peninsula

Weather History for KMRY - November, 2012

Change the Weather History Date:

Saturday, November 10, 2012

  Actual Average Record
Temperature  
Mean Temperature 50 °F 56 °F  
Max Temperature 57 °F 65 °F 76 °F (2016)
Min Temperature 43 °F 47 °F 41 °F (2006)
Degree Days  
Heating Degree Days 15    
Month to date heating degree days 74  
Since 1 July heating degree days 749  
Cooling Degree Days 0    
Month to date cooling degree days 10  
Year to date cooling degree days 36  
Moisture  
Dew Point 41 °F    
Average Humidity 78    
Maximum Humidity 100    
Minimum Humidity 55    
Precipitation  
Precipitation 0.00 in - 0.37 in (1998)
Month to date precipitation 0.70  
Year to date precipitation 9.03  
Since 1 July precipitation 1.38  
Sea Level Pressure  
Sea Level Pressure 30.18 in    
Wind  
Wind Speed 5 mph (SW)    
Max Wind Speed 17 mph    
Max Gust Speed 24 mph    
Visibility 10 miles    
Events      
T = Trace of Precipitation, MM = Missing Value Source: NWS Daily Summary

Daily Weather History Graph

Daily Weather History Graph

Search for Another Location

Airport or City:

Trip Planner

Search our weather history database for the weather conditions in past years. The results will help you decide how hot, cold, wet, or windy it might be!

Date:

Astronomy

Nov. 10, 2012 Rise Set
Actual Time 6:40 AM PST 5:01 PM PST
Civil Twilight 6:13 AM PST 5:28 PM PST
Nautical Twilight 5:42 AM PST 5:59 PM PST
Astronomical Twilight 5:11 AM PST 6:30 PM PST
Moon 2:56 AM PST (11/10) 2:47 PM PST (11/10)
Length of Visible Light 11h 15m
Length of Day
10h 21m
Waning Crescent, 13% of the Moon is Illuminated
Nov 10
Waning Crescent
Nov 13
New
Nov 20
First Quarter
Nov 28
Full
Dec 6
Last Quarter

Hourly Weather History & Observations

Time (PST) Temp. Windchill Dew Point Humidity Pressure Visibility Wind Dir Wind Speed Gust Speed Precip Events Conditions
12:54 AM 45.0 °F - 42.1 °F 90% 30.06 in 10.0 mi Calm Calm - N/A   Partly Cloudy
1:54 AM 44.1 °F - 42.1 °F 93% 30.08 in 10.0 mi Calm Calm - N/A   Partly Cloudy
2:54 AM 44.1 °F 42.5 °F 42.1 °F 93% 30.07 in 10.0 mi ESE 3.5 mph - N/A   Partly Cloudy
4:54 AM 43.0 °F 39.5 °F 41.0 °F 93% 30.09 in 10.0 mi East 5.8 mph - N/A   Scattered Clouds
5:54 AM 44.1 °F 42.5 °F 42.1 °F 93% 30.10 in 10.0 mi ESE 3.5 mph - N/A   Clear
6:54 AM 45.0 °F - 42.1 °F 90% 30.12 in 10.0 mi Calm Calm - N/A   Overcast
7:54 AM 50.0 °F - 46.0 °F 86% 30.14 in 10.0 mi SSE 3.5 mph - N/A   Mostly Cloudy
8:54 AM 54.0 °F - 46.0 °F 75% 30.17 in 10.0 mi Calm Calm - N/A   Partly Cloudy
9:54 AM 55.0 °F - 41.0 °F 59% 30.18 in 10.0 mi WNW 9.2 mph - N/A   Clear
10:54 AM 55.0 °F - 39.9 °F 57% 30.20 in 10.0 mi West 10.4 mph 18.4 mph N/A   Clear
11:54 AM 55.0 °F - 42.1 °F 62% 30.18 in 10.0 mi West 8.1 mph - N/A   Clear
12:54 PM 55.9 °F - 43.0 °F 62% 30.18 in 10.0 mi West 8.1 mph 16.1 mph N/A   Mostly Cloudy
1:54 PM 55.9 °F - 39.9 °F 55% 30.18 in 10.0 mi WSW 11.5 mph - N/A   Clear
2:54 PM 55.9 °F - 41.0 °F 57% 30.18 in 10.0 mi West 13.8 mph - N/A   Clear
3:54 PM 55.0 °F - 39.9 °F 57% 30.18 in 10.0 mi West 16.1 mph 20.7 mph N/A   Clear
4:54 PM 53.1 °F - 41.0 °F 64% 30.20 in 10.0 mi West 9.2 mph - N/A   Clear
5:54 PM 52.0 °F - 42.1 °F 69% 30.22 in 10.0 mi Variable 3.5 mph - N/A   Clear
6:54 PM 52.0 °F - 41.0 °F 66% 30.24 in 10.0 mi Variable 3.5 mph - N/A   Clear
8:54 PM 50.0 °F - 39.9 °F 68% 30.27 in 10.0 mi SW 3.5 mph - N/A   Clear
9:54 PM 45.0 °F 43.5 °F 39.0 °F 80% 30.29 in 10.0 mi SE 3.5 mph - N/A   Clear
10:54 PM 46.9 °F - 39.9 °F 77% 30.29 in 10.0 mi SE 4.6 mph - N/A   Clear
11:54 PM 44.1 °F 42.5 °F 39.0 °F 82% 30.30 in 10.0 mi East 3.5 mph - N/A   Clear